VSV735 UAAA-UASS

Flight info

Callsign VSV735
Flight time 1h 15m
Altitude 35000
Route N0450F350 GOGDO P984 GENGA L143 UVTOK
Aircraft B38M/M-VGDW/C

Departure

Time 2026-04-20 17:38
Airport Almaty International Airport (UAAA)

Arrival

Time 2026-04-20 18:53
Airport Semei International Airport (UASS)
Time Latitude Longitude Altitude Speed Heading
2026-04-20 17:24 43.34872 77.01653 2231 ft 0 kts 184°
2026-04-20 17:35 43.34849 77.01650 2228 ft 10 kts 191°
2026-04-20 17:36 43.34819 77.01532 2231 ft 18 kts 270°
2026-04-20 17:36 43.34774 77.01477 2228 ft 11 kts 201°
2026-04-20 17:36 43.34673 77.01442 2228 ft 17 kts 172°
2026-04-20 17:36 43.34551 77.01485 2229 ft 19 kts 160°
2026-04-20 17:37 43.34428 77.01564 2231 ft 20 kts 155°
2026-04-20 17:37 43.34296 77.01649 2231 ft 21 kts 156°
2026-04-20 17:37 43.34166 77.01752 2231 ft 22 kts 116°
2026-04-20 17:37 43.34202 77.01902 2228 ft 16 kts 55°
2026-04-20 17:38 43.34285 77.02070 2227 ft 39 kts 56°
2026-04-20 17:38 43.34597 77.02700 2232 ft 119 kts 56°
2026-04-20 17:38 43.35189 77.03885 2341 ft 171 kts 55°
2026-04-20 17:38 43.35891 77.05318 3080 ft 188 kts 56°
2026-04-20 17:39 43.36640 77.06860 3973 ft 199 kts 56°
2026-04-20 17:39 43.37460 77.08544 4504 ft 226 kts 56°
2026-04-20 17:39 43.38381 77.10433 5122 ft 249 kts 55°
2026-04-20 17:39 43.39396 77.12484 5760 ft 269 kts 55°
2026-04-20 17:40 43.40594 77.14528 6373 ft 289 kts 38°
2026-04-20 17:40 43.42463 77.15695 6964 ft 306 kts
2026-04-20 17:40 43.44605 77.16171 7706 ft 315 kts 12°
2026-04-20 17:40 43.46749 77.16842 8721 ft 320 kts 11°
2026-04-20 17:41 43.48956 77.17520 9594 ft 327 kts 11°
2026-04-20 17:41 43.51194 77.18198 10474 ft 333 kts 10°
2026-04-20 17:41 43.53475 77.18887 11320 ft 337 kts 10°
2026-04-20 17:41 43.55747 77.19569 12227 ft 340 kts 10°
2026-04-20 17:42 43.58098 77.20274 13133 ft 344 kts
2026-04-20 17:42 43.60417 77.20971 13997 ft 347 kts
2026-04-20 17:42 43.62792 77.21685 14795 ft 351 kts 10°
2026-04-20 17:42 43.65190 77.22405 15571 ft 355 kts 10°
2026-04-20 17:43 43.67615 77.23134 16326 ft 359 kts 10°
2026-04-20 17:43 43.70069 77.23873 17087 ft 363 kts 10°
2026-04-20 17:43 43.72553 77.24620 17844 ft 368 kts 10°
2026-04-20 17:43 43.75068 77.25379 18536 ft 372 kts 10°
2026-04-20 17:44 43.77577 77.26136 19155 ft 376 kts 10°
2026-04-20 17:44 43.80145 77.26911 19769 ft 380 kts 11°
2026-04-20 17:44 43.82740 77.27695 20368 ft 383 kts 11°
2026-04-20 17:44 43.85360 77.28488 20958 ft 387 kts 11°
2026-04-20 17:45 43.88007 77.29289 21545 ft 391 kts 11°
2026-04-20 17:45 43.90673 77.30096 22136 ft 395 kts 11°
2026-04-20 17:45 43.93374 77.30915 22674 ft 400 kts 11°
2026-04-20 17:45 43.96113 77.31747 23244 ft 404 kts 11°
2026-04-20 17:46 43.98864 77.32582 23783 ft 408 kts 11°
2026-04-20 17:46 44.01610 77.33417 24240 ft 411 kts 11°
2026-04-20 17:46 44.04409 77.34269 24732 ft 413 kts 11°
2026-04-20 17:46 44.07226 77.35127 25203 ft 416 kts 11°
2026-04-20 17:47 44.10059 77.35991 25676 ft 418 kts 11°
2026-04-20 17:47 44.12909 77.36861 26128 ft 421 kts 11°
2026-04-20 17:47 44.15781 77.37739 26570 ft 424 kts 11°
2026-04-20 17:47 44.18669 77.38621 27028 ft 426 kts 11°
2026-04-20 17:48 44.21573 77.39510 27471 ft 428 kts 11°
2026-04-20 17:48 44.24495 77.40405 27910 ft 431 kts 11°
2026-04-20 17:48 44.27394 77.41295 28339 ft 433 kts 11°
2026-04-20 17:48 44.30340 77.42199 28764 ft 435 kts 11°
2026-04-20 17:49 44.33308 77.43112 29225 ft 437 kts 11°
2026-04-20 17:49 44.36281 77.44026 29650 ft 439 kts 11°
2026-04-20 17:49 44.39276 77.44948 30042 ft 442 kts 11°
2026-04-20 17:49 44.42280 77.45874 30395 ft 444 kts 11°
2026-04-20 17:50 44.45303 77.46807 30736 ft 445 kts 11°
2026-04-20 17:50 44.48326 77.47741 31081 ft 447 kts 11°
2026-04-20 17:50 44.51370 77.48682 31430 ft 448 kts 11°
2026-04-20 17:50 44.54381 77.49614 31761 ft 450 kts 11°
2026-04-20 17:51 44.57448 77.50564 31975 ft 454 kts 11°
2026-04-20 17:51 44.60541 77.51524 32303 ft 456 kts 11°
2026-04-20 17:51 44.63642 77.52486 32636 ft 457 kts 11°
2026-04-20 17:51 44.66755 77.53454 32963 ft 459 kts 11°
2026-04-20 17:52 44.69863 77.54421 33406 ft 457 kts 11°
2026-04-20 17:52 44.72965 77.55387 33897 ft 455 kts 11°
2026-04-20 17:52 44.76042 77.56346 34335 ft 452 kts 11°
2026-04-20 17:52 44.79071 77.57291 34690 ft 451 kts 11°
2026-04-20 17:53 44.82134 77.58247 35023 ft 451 kts 11°
2026-04-20 17:53 44.85207 77.59210 35140 ft 452 kts 11°
2026-04-20 17:53 44.88267 77.60169 35138 ft 450 kts 11°
2026-04-20 17:54 44.94365 77.62082 35142 ft 448 kts 11°
2026-04-20 17:54 45.00452 77.63996 35146 ft 448 kts 11°
2026-04-20 17:55 45.06480 77.66037 35149 ft 449 kts 13°
2026-04-20 17:55 45.12581 77.68181 35156 ft 452 kts 13°
2026-04-20 17:56 45.18665 77.70315 35150 ft 450 kts 13°
2026-04-20 17:56 45.24746 77.72452 35151 ft 450 kts 13°
2026-04-20 17:57 45.30794 77.74582 35154 ft 450 kts 13°
2026-04-20 17:57 45.36858 77.76723 35153 ft 448 kts 13°
2026-04-20 17:58 45.42908 77.78863 35154 ft 448 kts 13°
2026-04-20 17:58 45.48993 77.80742 35160 ft 447 kts
2026-04-20 17:59 45.55104 77.82414 35154 ft 446 kts 10°
2026-04-20 17:59 45.61135 77.84096 35155 ft 445 kts 10°
2026-04-20 18:00 45.67213 77.85796 35155 ft 445 kts 10°
2026-04-20 18:00 45.73282 77.87499 35156 ft 444 kts 10°
2026-04-20 18:01 45.79332 77.89199 35147 ft 442 kts 10°
2026-04-20 18:01 45.85328 77.90888 35152 ft 442 kts 10°
2026-04-20 18:02 45.91362 77.92592 35151 ft 442 kts 10°
2026-04-20 18:02 45.97388 77.94297 35150 ft 439 kts 10°
2026-04-20 18:03 46.03378 77.95995 35157 ft 439 kts 10°
2026-04-20 18:03 46.09324 77.97685 35156 ft 439 kts 10°
2026-04-20 18:04 46.15321 77.99393 35158 ft 440 kts 10°
2026-04-20 18:04 46.21329 78.01108 35161 ft 440 kts 10°
2026-04-20 18:05 46.30330 78.03685 35163 ft 440 kts 10°
2026-04-20 18:05 46.36288 78.05395 35165 ft 439 kts 11°
2026-04-20 18:06 46.42245 78.07109 35163 ft 435 kts 11°
2026-04-20 18:06 46.48190 78.08823 35167 ft 436 kts 11°
2026-04-20 18:07 46.54137 78.10542 35165 ft 436 kts 11°
2026-04-20 18:07 46.60082 78.12263 35165 ft 436 kts 11°
2026-04-20 18:08 46.65989 78.13978 35162 ft 436 kts 11°
2026-04-20 18:08 46.71933 78.15707 35161 ft 436 kts 11°
2026-04-20 18:09 46.77925 78.17455 35162 ft 441 kts 11°
2026-04-20 18:09 46.83904 78.19202 35158 ft 437 kts 11°
2026-04-20 18:10 46.89826 78.20936 35152 ft 437 kts 11°
2026-04-20 18:10 46.95785 78.22686 35149 ft 437 kts 11°
2026-04-20 18:11 47.01732 78.24436 35151 ft 435 kts 11°
2026-04-20 18:11 47.07648 78.26180 35146 ft 433 kts 11°
2026-04-20 18:12 47.13550 78.27925 35143 ft 433 kts 11°
2026-04-20 18:12 47.19420 78.29664 35142 ft 433 kts 11°
2026-04-20 18:13 47.25296 78.31408 35140 ft 428 kts 11°
2026-04-20 18:13 47.31127 78.33143 35148 ft 428 kts 11°
2026-04-20 18:14 47.37013 78.34899 35147 ft 433 kts 11°
2026-04-20 18:14 47.42877 78.36651 35140 ft 432 kts 11°
2026-04-20 18:15 47.48752 78.38410 35146 ft 429 kts 11°
2026-04-20 18:15 47.54603 78.40166 35149 ft 429 kts 11°
2026-04-20 18:16 47.60248 78.42930 35156 ft 430 kts 21°
2026-04-20 18:16 47.65739 78.46306 35152 ft 429 kts 22°
2026-04-20 18:17 47.71219 78.49706 35147 ft 425 kts 22°
2026-04-20 18:17 47.76684 78.53109 35152 ft 426 kts 22°
2026-04-20 18:18 47.81230 78.55945 35159 ft 427 kts 22°
2026-04-20 18:18 47.87622 78.59943 35157 ft 429 kts 22°
2026-04-20 18:19 47.93085 78.63369 35151 ft 425 kts 22°
2026-04-20 18:19 47.98530 78.66790 35151 ft 425 kts 22°
2026-04-20 18:20 48.03054 78.69639 35151 ft 425 kts 22°
2026-04-20 18:20 48.08501 78.73077 35143 ft 425 kts 22°
2026-04-20 18:21 48.14825 78.77077 35145 ft 424 kts 22°
2026-04-20 18:21 48.19348 78.79945 35146 ft 424 kts 22°
2026-04-20 18:22 48.24792 78.83404 35150 ft 426 kts 22°
2026-04-20 18:22 48.31142 78.87449 35146 ft 426 kts 22°
2026-04-20 18:23 48.35716 78.90368 35141 ft 426 kts 22°
2026-04-20 18:23 48.41141 78.93833 35149 ft 426 kts 22°
2026-04-20 18:24 48.46601 78.97329 35150 ft 427 kts 22°
2026-04-20 18:24 48.52044 79.00822 35151 ft 416 kts 22°
2026-04-20 18:25 48.55483 79.03034 34977 ft 400 kts 22°
2026-04-20 18:25 48.57208 79.04144 34653 ft 398 kts 22°
2026-04-20 18:25 48.59749 79.05782 34125 ft 397 kts 22°
2026-04-20 18:25 48.62250 79.07395 33536 ft 395 kts 22°
2026-04-20 18:26 48.64769 79.09021 33039 ft 392 kts 23°
2026-04-20 18:26 48.67271 79.10638 32557 ft 389 kts 23°
2026-04-20 18:26 48.69749 79.12242 32084 ft 386 kts 23°
2026-04-20 18:26 48.72208 79.13834 31603 ft 383 kts 23°
2026-04-20 18:27 48.74650 79.15418 31143 ft 380 kts 23°
2026-04-20 18:27 48.77075 79.16992 30680 ft 378 kts 23°
2026-04-20 18:27 48.79486 79.18559 30212 ft 376 kts 24°
2026-04-20 18:27 48.81879 79.20115 29687 ft 374 kts 23°
2026-04-20 18:28 48.84259 79.21664 29227 ft 370 kts 23°
2026-04-20 18:28 48.86584 79.23180 28802 ft 367 kts 23°
2026-04-20 18:28 48.88917 79.24702 28375 ft 363 kts 23°
2026-04-20 18:28 48.91228 79.26212 27958 ft 360 kts 23°
2026-04-20 18:29 48.93520 79.27710 27543 ft 357 kts 23°
2026-04-20 18:29 48.95792 79.29197 27146 ft 354 kts 23°
2026-04-20 18:29 48.98046 79.30674 26749 ft 351 kts 23°
2026-04-20 18:29 49.00285 79.32142 26358 ft 349 kts 23°
2026-04-20 18:30 49.02509 79.33602 25976 ft 347 kts 23°
2026-04-20 18:30 49.04687 79.35035 25599 ft 345 kts 22°
2026-04-20 18:30 49.06880 79.36476 25230 ft 343 kts 22°
2026-04-20 18:30 49.09066 79.37915 24861 ft 341 kts 22°
2026-04-20 18:31 49.11242 79.39349 24490 ft 340 kts 22°
2026-04-20 18:31 49.13409 79.40778 24122 ft 338 kts 22°
2026-04-20 18:31 49.15566 79.42203 23755 ft 337 kts 22°
2026-04-20 18:31 49.17716 79.43623 23339 ft 336 kts 22°
2026-04-20 18:32 49.19851 79.45036 22962 ft 333 kts 22°
2026-04-20 18:32 49.21949 79.46425 22605 ft 336 kts 22°
2026-04-20 18:32 49.24106 79.47854 22259 ft 340 kts 22°
2026-04-20 18:32 49.26287 79.49300 21896 ft 342 kts 22°
2026-04-20 18:33 49.28471 79.50751 21547 ft 342 kts 22°
2026-04-20 18:33 49.30650 79.52200 21191 ft 341 kts 22°
2026-04-20 18:33 49.32823 79.53645 20836 ft 340 kts 22°
2026-04-20 18:33 49.34986 79.55086 20484 ft 339 kts 22°
2026-04-20 18:34 49.37144 79.56524 20130 ft 337 kts 22°
2026-04-20 18:34 49.39264 79.57939 19786 ft 336 kts 22°
2026-04-20 18:34 49.41408 79.59370 19439 ft 335 kts 22°
2026-04-20 18:34 49.43534 79.60791 19199 ft 330 kts 22°
2026-04-20 18:35 49.45618 79.62186 18946 ft 325 kts 22°
2026-04-20 18:35 49.47684 79.63569 18637 ft 322 kts 22°
2026-04-20 18:35 49.49732 79.64942 18301 ft 320 kts 22°
2026-04-20 18:35 49.51767 79.66308 17947 ft 318 kts 22°
2026-04-20 18:36 49.53799 79.67672 17594 ft 322 kts 22°
2026-04-20 18:36 49.55836 79.69041 17247 ft 326 kts 22°
2026-04-20 18:36 49.57915 79.70439 16911 ft 326 kts 22°
2026-04-20 18:36 49.59991 79.71836 16570 ft 325 kts 22°
2026-04-20 18:37 49.62052 79.73225 16235 ft 322 kts 22°
2026-04-20 18:37 49.64095 79.74602 15900 ft 319 kts 22°
2026-04-20 18:37 49.66085 79.76110 15488 ft 320 kts 32°
2026-04-20 18:37 49.67870 79.78143 15186 ft 317 kts 35°
2026-04-20 18:38 49.69633 79.80167 14874 ft 314 kts 35°
2026-04-20 18:38 49.71360 79.82142 14571 ft 312 kts 35°
2026-04-20 18:38 49.73099 79.84129 14247 ft 310 kts 35°
2026-04-20 18:38 49.74830 79.86106 13913 ft 308 kts 35°
2026-04-20 18:39 49.76550 79.88071 13554 ft 307 kts 35°
2026-04-20 18:39 49.78259 79.90025 13227 ft 304 kts 35°
2026-04-20 18:39 49.79952 79.91963 12902 ft 301 kts 35°
2026-04-20 18:39 49.81625 79.93880 12593 ft 299 kts 35°
2026-04-20 18:40 49.83291 79.95789 12280 ft 296 kts 35°
2026-04-20 18:40 49.84913 79.97652 11974 ft 294 kts 35°
2026-04-20 18:40 49.86549 79.99530 11670 ft 292 kts 35°
2026-04-20 18:40 49.88187 80.01413 11368 ft 296 kts 35°
2026-04-20 18:41 49.89852 80.03328 11055 ft 300 kts 36°
2026-04-20 18:41 49.91529 80.05261 10739 ft 301 kts 36°
2026-04-20 18:41 49.93206 80.07194 10478 ft 298 kts 36°
2026-04-20 18:41 49.94850 80.09090 10334 ft 290 kts 36°
2026-04-20 18:42 49.96446 80.10933 10190 ft 282 kts 36°
2026-04-20 18:42 49.97991 80.12718 9901 ft 280 kts 36°
2026-04-20 18:42 49.99556 80.14529 9504 ft 281 kts 36°
2026-04-20 18:42 50.01126 80.16345 9159 ft 281 kts 36°
2026-04-20 18:43 50.02690 80.18157 8842 ft 279 kts 36°
2026-04-20 18:43 50.04241 80.19955 8539 ft 277 kts 36°
2026-04-20 18:43 50.05775 80.21736 8250 ft 274 kts 36°
2026-04-20 18:43 50.07297 80.23503 7963 ft 272 kts 36°
2026-04-20 18:44 50.08790 80.25239 7659 ft 270 kts 36°
2026-04-20 18:44 50.10288 80.26981 7396 ft 268 kts 36°
2026-04-20 18:44 50.11780 80.28716 7110 ft 266 kts 36°
2026-04-20 18:44 50.13256 80.30436 6832 ft 264 kts 37°
2026-04-20 18:45 50.14724 80.32149 6554 ft 263 kts 37°
2026-04-20 18:45 50.16181 80.33849 6240 ft 261 kts 37°
2026-04-20 18:45 50.17629 80.35540 5962 ft 259 kts 37°
2026-04-20 18:45 50.19066 80.37219 5683 ft 257 kts 37°
2026-04-20 18:46 50.20490 80.38885 5404 ft 255 kts 37°
2026-04-20 18:46 50.21884 80.40515 5137 ft 253 kts 37°
2026-04-20 18:46 50.23283 80.42154 4882 ft 250 kts 37°
2026-04-20 18:46 50.24664 80.43773 4643 ft 247 kts 37°
2026-04-20 18:47 50.26030 80.45380 4384 ft 244 kts 37°
2026-04-20 18:47 50.27385 80.46968 4128 ft 242 kts 37°
2026-04-20 18:47 50.28727 80.48545 3873 ft 240 kts 37°
2026-04-20 18:47 50.30054 80.50105 3663 ft 236 kts 37°
2026-04-20 18:48 50.31359 80.51593 3502 ft 229 kts 34°
2026-04-20 18:48 50.32632 80.53000 3290 ft 225 kts 36°
2026-04-20 18:48 50.33903 80.54393 3107 ft 220 kts 27°
2026-04-20 18:48 50.35340 80.54841 3011 ft 207 kts 352°
2026-04-20 18:49 50.36576 80.53955 3034 ft 188 kts 314°
2026-04-20 18:49 50.37252 80.52246 3087 ft 186 kts 285°
2026-04-20 18:49 50.37243 80.50255 3055 ft 185 kts 256°
2026-04-20 18:49 50.36970 80.48273 3074 ft 187 kts 260°
2026-04-20 18:50 50.36787 80.46274 2968 ft 182 kts 263°
2026-04-20 18:50 50.36653 80.44427 2858 ft 166 kts 264°
2026-04-20 18:50 50.36530 80.42639 2785 ft 165 kts 264°
2026-04-20 18:50 50.36405 80.40856 2665 ft 164 kts 264°
2026-04-20 18:51 50.36285 80.39141 2512 ft 153 kts 264°
2026-04-20 18:51 50.36171 80.37509 2318 ft 149 kts 263°
2026-04-20 18:51 50.36060 80.35902 2117 ft 148 kts 264°
2026-04-20 18:51 50.35945 80.34296 1912 ft 148 kts 264°
2026-04-20 18:52 50.35832 80.32695 1711 ft 148 kts 264°
2026-04-20 18:52 50.35719 80.31092 1500 ft 148 kts 263°
2026-04-20 18:52 50.35600 80.29505 1290 ft 149 kts 263°
2026-04-20 18:52 50.35490 80.27898 1084 ft 148 kts 265°
2026-04-20 18:53 50.35388 80.26292 901 ft 148 kts 264°
2026-04-20 18:53 50.35271 80.24699 766 ft 143 kts 264°
2026-04-20 18:53 50.35176 80.23361 762 ft 93 kts 264°
2026-04-20 18:53 50.35126 80.22653 762 ft 39 kts 263°
2026-04-20 18:54 50.35105 80.22398 758 ft 24 kts 263°
2026-04-20 18:54 50.35091 80.22196 762 ft 12 kts 265°
2026-04-20 18:54 50.35078 80.22058 757 ft 12 kts 237°
2026-04-20 18:54 50.35005 80.22007 758 ft 10 kts 193°
2026-04-20 18:55 50.34928 80.21976 758 ft 13 kts 196°
2026-04-20 18:55 50.34835 80.21936 757 ft 15 kts 194°
2026-04-20 18:55 50.34740 80.21898 759 ft 11 kts 195°
2026-04-20 18:55 50.34667 80.21889 759 ft 12 kts 155°
2026-04-20 18:56 50.34591 80.21915 758 ft 6 kts 184°
2026-04-20 18:56 50.34574 80.21881 758 ft 1 kts 277°
2026-04-20 18:56 50.34590 80.21862 757 ft 6 kts 338°
2026-04-20 18:56 50.34617 80.21855 756 ft 2 kts 353°
2026-04-20 18:57 50.34628 80.21853 759 ft 1 kts 353°
2026-04-20 18:57 50.34630 80.21853 758 ft 0 kts 353°